OBJECT B, 62730

Orbit data source: Space-Track

You're viewing an Uncataloged Satellite

Recently launched and/or uncataloged satellites may have evolving metadata. Metadata may include but not limited to: Owner, Maufacturer, Bus, Motor, and Mission.

OBJECT B, 62730 is a satellite owned by Yunyao yuhang (CN) in SSO that was launched on Mon, 20 Jan 2025 UTC via a GUSHENXING 1 launch vehicle from the Jiuquan Satellite Launch Center, China (JSC). Unknown objects in Earth's orbit typically refer to objects detected orbiting the Earth but have not yet been identified or cataloged. These objects could be anything from previously untracked satellites, spent rocket stages, debris from satellite collisions, or even natural meteoroids temporarily captured by Earth's gravity.

Loading next visibility...
OBJECT B details
Identifier
62730, 2025-013B
Orbit
SSO
Last TLE update11 hours ago
Origin
Flag of CNYunyao yuhang (CN / PRC)
ManufacturerYunyao yuhang
MissionOperational spacecraft
Bus & MotorYY-1, Unknown motor
Mass~50 kg wet, ~50 kg dry
Launch date (UTC)
2025-01-20 (2 weeks ago)
Launch vehicle
GUSHENXING 1
Launch site
Jiuquan Satellite Launch Center, China (JSC)
Object typeUnknown
Shape & HBRUnknown
Radar Cross SectionMedium (>0.1 m² and <1 m²)

Expand to show TLE details & history

TLE from 11 hours ago
0 OBJECT B
1 62730U 25013B   25035.71840223  .00009538  00000-0  63142-3 0  9995
2 62730  97.6114 202.6847 0013101 258.1293 101.8466 15.07474144  2312
Epoch: 2025-02-04T17:14Z
Definitive object data (Epoch: 2025-02-04T17:14:29.952Z)
Latitude-0.00001°
Longitude168.94023°
Altitude548.862 km
Speed7.586 km/s
True Right ascension13h 30m 44s
True Declination0° 00' 00"
Sunlit
Object was in full shadow at TLE epoch
Visualization TLE readout
Latitude-82.34751°
Longitude-92.1607°
Altitude563.399 km
Speed7.583 km/s
Apparent Right ascension18h 20m 30s
Apparent Declination-62° 24' 33"
Sunlit
Object is in daylight
Visualization observer readout
Local Sidereal Time06:01:09
Azimuth185.813° SSW
Elevation-67.318°
Doppler factor1
Orbital elements
Apogee altitude549.977 km
Perigee altitude531.848 km
Semi-major axis6,919.05 km
Eccentricity0.0013101
Inclination97.6114°
RAAN202.6847°
Arg. of periapsis258.1293°
True anomaly101.99348°
Mean anomaly101.8466°
Eccentric anomaly101.92004°
Mean motion3.77115 °/min
BSTAR0.00063142
Orbital period95.46 mins
Loading maneuver chart data...
Loading historical data...
Loading historical data...
Loading historical data...
Loading historical data...
Loading historical data...
Loading historical data...
Loading historical data...
Other satellites on launch #13 in the year 2025 (2025-01-20 UTC)

OBJECT B Visibility forecast

Observer location: undefined°, undefined

Span
Click to sort rows by Start time (UTC) header in descending order
Start Az.
Max El. time (UTC)
Max El. Az.
Max El.
End time (UTC)
End Az.
7 mins2025-02-05 10:53:23.262Z158.341° S2025-02-05 10:56:23.262Z113.854° SE42.416°2025-02-05 11:00:23.262Z352.88° N
6 mins2025-02-06 00:05:23.262Z0.031° NNE2025-02-06 00:07:23.262Z302.788° NW41.871°2025-02-06 00:11:23.262Z203.22° SW
|